Weather History for Wrangell, AK

Change the Weather History Date:

Thursday, May 8, 2014

  Actual Average Record
Temperature  
Mean Temperature 52 °F -  
Max Temperature 57 °F 54 °F 71 °F (1957)
Min Temperature 46 °F 39 °F 32 °F (1954)
Degree Days  
Heating Degree Days 14    
Growing Degree Days 2 (Base 50)    
Moisture  
Dew Point 39 °F    
Average Humidity 67    
Maximum Humidity 82    
Minimum Humidity 51    
Precipitation  
Precipitation 0.00 in - - ()
Sea Level Pressure  
Sea Level Pressure 29.71 in    
Wind  
Wind Speed 3 mph (WSW)    
Max Wind Speed 13 mph    
Max Gust Speed -    
Visibility 10 miles    
Events      
Averages and records for this station are not official NWS values.
T = Trace of Precipitation, MM = Missing Value Source: NWS Daily Summary

Daily Weather History Graph

Daily Weather History Graph

Search for Another Location

Airport:

Trip Planner

Search our weather history database for the weather conditions in past years. The results will help you decide how hot, cold, wet, or windy it might be!

Date:

Astronomy

May. 08, 2014 Rise Set
Actual Time 4:47 AM AKDT 8:45 PM AKDT
Civil Twilight 3:59 AM AKDT 9:34 PM AKDT
Nautical Twilight 2:48 AM AKDT 10:46 PM AKDT
Astronomical Twilight 1:18 AM AKDT 12:13 AM AKDT
Moon 1:45 PM AKDT (5/8) 2:34 AM AKDT (5/8)
Length of Visible Light 17h 34m
Length of Day
15h 57m
Waxing Gibbous, 66% of the Moon is Illuminated
May 8
Waxing Gibbous
May 14
Full
May 21
Last Quarter
May 28
New
Jun 5
First Quarter

Hourly Weather History & Observations

Time (AKDT) Temp. Windchill Dew Point Humidity Pressure Visibility Wind Dir Wind Speed Gust Speed Precip Events Conditions
12:16 AM 48.2 °F - 33.8 °F 58% 29.79 in 10.0 mi Calm Calm - N/A   Overcast
12:36 AM 48.2 °F - 33.8 °F 58% 29.79 in 10.0 mi Calm Calm - N/A   Overcast
12:56 AM 48.2 °F - 35.6 °F 62% 29.78 in 10.0 mi Calm Calm - N/A   Overcast
1:16 AM 48.2 °F - 33.8 °F 58% 29.78 in 10.0 mi Calm Calm - N/A   Mostly Cloudy
1:36 AM 48.2 °F - 33.8 °F 58% 29.78 in 10.0 mi Calm Calm - N/A   Mostly Cloudy
1:56 AM 48.2 °F - 33.8 °F 58% 29.78 in 10.0 mi Calm Calm - N/A   Overcast
2:16 AM 48.2 °F - 33.8 °F 58% 29.78 in 10.0 mi Calm Calm - N/A   Overcast
2:36 AM 48.2 °F - 32.0 °F 54% 29.77 in 5.0 mi Calm Calm - N/A   Mostly Cloudy
2:56 AM 48.2 °F - 33.8 °F 58% 29.77 in 10.0 mi SSW 3.5 mph - N/A   Mostly Cloudy
3:16 AM 46.4 °F - 33.8 °F 62% 29.77 in 10.0 mi Calm Calm - N/A   Mostly Cloudy
3:36 AM 46.4 °F - 35.6 °F 66% 29.77 in 10.0 mi Calm Calm - N/A   Partly Cloudy
3:56 AM 46.4 °F - 33.8 °F 62% 29.76 in 10.0 mi Calm Calm - N/A   Clear
4:16 AM 46.4 °F - 35.6 °F 66% 29.76 in 10.0 mi Calm Calm - N/A   Clear
4:36 AM 46.4 °F 45.2 °F 35.6 °F 66% 29.76 in 10.0 mi South 3.5 mph - N/A   Partly Cloudy
4:56 AM 46.4 °F - 35.6 °F 66% 29.76 in 10.0 mi Calm Calm - N/A   Scattered Clouds
5:16 AM 46.4 °F 45.2 °F 35.6 °F 66% 29.75 in 10.0 mi East 3.5 mph - N/A   Mostly Cloudy
5:36 AM 46.4 °F 45.2 °F 37.4 °F 71% 29.74 in 10.0 mi ESE 3.5 mph - N/A   Mostly Cloudy
5:56 AM 46.4 °F 45.2 °F 37.4 °F 71% 29.74 in 10.0 mi SSE 3.5 mph - N/A   Overcast
6:16 AM 46.4 °F 44.3 °F 37.4 °F 71% 29.74 in 10.0 mi ESE 4.6 mph - N/A   Overcast
6:36 AM 46.4 °F - 37.4 °F 71% 29.74 in 10.0 mi Calm Calm - N/A   Overcast
6:56 AM 46.4 °F 45.2 °F 39.2 °F 76% 29.73 in 10.0 mi ESE 3.5 mph - N/A   Overcast
7:16 AM 46.4 °F - 39.2 °F 76% 29.73 in 10.0 mi Calm Calm - N/A   Overcast
7:36 AM 48.2 °F - 37.4 °F 66% 29.73 in 10.0 mi ENE 4.6 mph - N/A   Overcast
7:56 AM 48.2 °F - 39.2 °F 71% 29.73 in 10.0 mi Calm Calm - N/A   Mostly Cloudy
8:16 AM 48.2 °F - 39.2 °F 71% 29.73 in 10.0 mi Calm Calm - N/A   Mostly Cloudy
8:36 AM 48.2 °F - 39.2 °F 71% 29.73 in 10.0 mi Calm Calm - N/A   Mostly Cloudy
8:56 AM 48.2 °F - 39.2 °F 71% 29.73 in 10.0 mi Calm Calm - N/A   Overcast
9:16 AM 48.2 °F - 39.2 °F 71% 29.73 in 10.0 mi Calm Calm - N/A   Overcast
9:36 AM 48.2 °F - 41.0 °F 76% 29.73 in 10.0 mi North 3.5 mph - N/A   Overcast
9:56 AM 48.2 °F - 39.2 °F 71% 29.73 in 10.0 mi SW 3.5 mph - N/A   Overcast
10:16 AM 48.2 °F - 42.8 °F 82% 29.73 in 10.0 mi NW 3.5 mph - N/A   Overcast
10:36 AM 48.2 °F - 41.0 °F 76% 29.72 in 10.0 mi NNW 3.5 mph - N/A   Overcast
10:56 AM 48.2 °F - 41.0 °F 76% 29.72 in 10.0 mi NW 4.6 mph - N/A   Overcast
11:16 AM 50.0 °F - 41.0 °F 71% 29.72 in 10.0 mi NW 5.8 mph - N/A   Overcast
11:36 AM 51.8 °F - 41.0 °F 67% 29.71 in 10.0 mi NW 8.1 mph - N/A   Overcast
11:56 AM 51.8 °F - 41.0 °F 67% 29.71 in 10.0 mi NW 6.9 mph - N/A   Scattered Clouds
12:16 PM 53.6 °F - 41.0 °F 62% 29.70 in 10.0 mi WNW 6.9 mph - N/A   Scattered Clouds
12:36 PM 53.6 °F - 41.0 °F 62% 29.70 in 10.0 mi NW 5.8 mph - N/A   Scattered Clouds
12:56 PM 55.4 °F - 39.2 °F 54% 29.70 in 10.0 mi WSW 3.5 mph - N/A   Mostly Cloudy
1:16 PM 55.4 °F - 39.2 °F 54% 29.69 in 10.0 mi WSW 4.6 mph - N/A   Mostly Cloudy
1:36 PM 57.2 °F - 41.0 °F 55% 29.69 in 10.0 mi NW 5.8 mph - N/A   Mostly Cloudy
1:56 PM 57.2 °F - 39.2 °F 51% 29.68 in 10.0 mi WNW 6.9 mph - N/A   Scattered Clouds
2:16 PM 57.2 °F - 39.2 °F 51% 29.68 in 10.0 mi SW 11.5 mph - N/A   Scattered Clouds
2:36 PM 55.4 °F - 39.2 °F 54% 29.68 in 10.0 mi SW 12.7 mph - N/A   Scattered Clouds
2:56 PM 55.4 °F - 39.2 °F 54% 29.68 in 10.0 mi WSW 9.2 mph - N/A   Scattered Clouds
3:16 PM 55.4 °F - 42.8 °F 63% 29.67 in 10.0 mi WSW 5.8 mph - N/A   Overcast
3:36 PM 55.4 °F - 42.8 °F 63% 29.67 in 10.0 mi WNW 11.5 mph - N/A   Overcast
3:56 PM 53.6 °F - 42.8 °F 67% 29.67 in 10.0 mi WSW 9.2 mph - N/A   Overcast
4:16 PM 53.6 °F - 42.8 °F 67% 29.67 in 10.0 mi West 9.2 mph - N/A   Overcast
4:36 PM 53.6 °F - 42.8 °F 67% 29.67 in 10.0 mi WSW 9.2 mph - N/A   Overcast
4:56 PM 53.6 °F - 42.8 °F 67% 29.67 in 10.0 mi WSW 9.2 mph - N/A   Overcast
5:16 PM 53.6 °F - 42.8 °F 67% 29.67 in 10.0 mi West 9.2 mph - N/A   Overcast
5:36 PM 53.6 °F - 42.8 °F 67% 29.67 in 10.0 mi West 9.2 mph - N/A   Overcast
5:56 PM 53.6 °F - 42.8 °F 67% 29.66 in 10.0 mi West 9.2 mph - N/A   Mostly Cloudy
6:16 PM 53.6 °F - 42.8 °F 67% 29.66 in 10.0 mi West 11.5 mph - N/A   Mostly Cloudy
6:36 PM 53.6 °F - 42.8 °F 67% 29.66 in 10.0 mi West 9.2 mph - N/A   Mostly Cloudy
6:56 PM 53.6 °F - 42.8 °F 67% 29.66 in 10.0 mi West 6.9 mph - N/A   Mostly Cloudy
7:16 PM 51.8 °F - 42.8 °F 71% 29.65 in 10.0 mi West 8.1 mph - N/A   Mostly Cloudy
7:36 PM 51.8 °F - 42.8 °F 71% 29.66 in 10.0 mi WSW 5.8 mph - N/A   Mostly Cloudy
7:56 PM 51.8 °F - 42.8 °F 71% 29.65 in 10.0 mi West 5.8 mph - N/A   Mostly Cloudy
8:16 PM 51.8 °F - 41.0 °F 67% 29.66 in 10.0 mi West 4.6 mph - N/A   Mostly Cloudy
8:36 PM 51.8 °F - 41.0 °F 67% 29.66 in 10.0 mi WSW 3.5 mph - N/A   Mostly Cloudy
8:56 PM 50.0 °F - 42.8 °F 76% 29.66 in 10.0 mi SW 4.6 mph - N/A   Mostly Cloudy
9:16 PM 50.0 °F - 42.8 °F 76% 29.66 in 10.0 mi WSW 4.6 mph - N/A   Mostly Cloudy
9:36 PM 50.0 °F - 41.0 °F 71% 29.66 in 10.0 mi WSW 5.8 mph - N/A   Mostly Cloudy
9:56 PM 48.2 °F - 41.0 °F 76% 29.66 in 10.0 mi WSW 4.6 mph - N/A   Mostly Cloudy
10:16 PM 48.2 °F - 41.0 °F 76% 29.66 in 10.0 mi WSW 3.5 mph - N/A   Mostly Cloudy
10:36 PM 48.2 °F - 41.0 °F 76% 29.66 in 10.0 mi WSW 5.8 mph - N/A   Mostly Cloudy
10:56 PM 46.4 °F 42.9 °F 39.2 °F 76% 29.66 in 10.0 mi SW 6.9 mph - N/A   Mostly Cloudy
11:16 PM 48.2 °F - 39.2 °F 71% 29.66 in 10.0 mi SW 6.9 mph - N/A   Clear
11:36 PM 48.2 °F - 39.2 °F 71% 29.66 in 10.0 mi SW 5.8 mph - N/A   Clear
11:56 PM 48.2 °F - 39.2 °F 71% 29.66 in 10.0 mi WSW 3.5 mph - N/A   Clear